[[{"header":{"parameterUnit":"m.s-1","parameterCategory":2,"la1":30.2991,"la2":30.254,"lo1":-89.0895,"lo2":-89.0444,"dy":0.0017,"dx":0.0017,"nx":28,"ny":28,"refTime":"2025-12-10T09:00:00:Z","depth":"0","parameterNumber":2,"parameterNumberName":"U-component_of_CURRENTS"},"data":[0,0,0,0,0,0,0,0,0,0,0,0,0,0,0,0,0,0,0,0,0,0,0,0,0,0,0,0,0,0,0,0,0,0,0,0,0,0,0,0,0,0,0,0,0,0,0,0,0,0,0,0,0,0,0,0,0,0,0.1855,0.1853,0,0.1803,0.1804,0.1805,0.1818,0.1818,0.1817,0.1817,0.2029,0.2035,0.2041,0,0,0,0,0,0,0,0,0,0,0,0,0,0.1946,0.1946,0.1855,0.1853,0.185,0.1803,0.1804,0.1805,0.1818,0.1817,0.1817,0.1816,0.2027,0.2034,0.2041,0,0,0,0,0,0,0,0,0,0,0,0,0,0.1917,0.1946,0.1855,0.1839,0.1836,0.1803,0.1804,0.1805,0.1818,0.1817,0.1817,0.1816,0.2024,0.2033,0.2042,0.2114,0,0,0.207,0.2074,0,0,0,0,0,0,0,0,0.1919,0.1916,0.1844,0.184,0.1836,0.1802,0.1913,0.1916,0.1818,0.1843,0.1817,0.1816,0.1967,0.1981,0.1993,0.2124,0.2133,0.2071,0.2077,0.2081,0.2083,0,0,0,0,0,0,0,0.1921,0.1918,0.1851,0.1841,0.1836,0.1826,0.1824,0.1914,0.1928,0.184,0.1837,0.1805,0.1969,0.1984,0.1998,0.2136,0.2071,0.2079,0.2085,0.2088,0.2342,0.2343,0,0,0,0,0,0,0.1896,0.192,0.1853,0.1848,0.1858,0.1824,0.1822,0.1827,0.1921,0.1927,0.1806,0.1805,0.1968,0.1988,0.2006,0.2087,0.2081,0.2089,0.2094,0.2341,0.2342,0.2344,0,0,0,0,0,0,0.1899,0.1892,0.1854,0.1867,0.186,0.1822,0.1829,0.1826,0.1827,0.1888,0.1903,0.1805,0.1969,0.1993,0.209,0.2096,0.2093,0.2102,0.2339,0.2341,0.2343,0.2256,0,0,0,0,0,0,0.1903,0.1895,0.1911,0.1867,0.1857,0.1828,0.1827,0.1825,0.1801,0.1801,0.1894,0.1912,0.197,0.2076,0.2099,0.2108,0.2109,0.2338,0.234,0.2342,0.2258,0.2255,0.2253,0,0,0,0,0,0.1907,0.1897,0.1913,0.1904,0.1875,0.1825,0.1823,0.1803,0.1801,0.1804,0.1875,0.1909,0.2106,0.2085,0.2112,0.2124,0.2337,0.234,0.2342,0.2259,0.2255,0.2253,0,0,0,0,0,0,0.1919,0.1895,0.1911,0.1892,0.1865,0.1821,0.1803,0.1798,0.1852,0.1868,0.1937,0.1962,0.2041,0.2106,0.208,0.2205,0.2223,0.2232,0.2151,0.2149,0.2146,0.2115,0.2116,0,0,0,0,0,0.1936,0.1922,0.1905,0.1873,0.1873,0.1849,0.183,0.1824,0.1841,0.186,0.1915,0.1997,0.2076,0.2128,0.2204,0.229,0.2303,0.2313,0.2311,0.2308,0.2303,0.2321,0.2318,0.2353,0.2353,0.2353,0,0,0.1911,0.1897,0.1884,0.1874,0.1857,0.1845,0.184,0.1806,0.1809,0.1885,0.1925,0.199,0.2095,0.2173,0.2216,0.223,0.2304,0.2312,0.2308,0.2305,0.2323,0.2319,0.2316,0.2355,0.2354,0.2354,0,0,0.1834,0.187,0.1844,0.1838,0.1815,0.1822,0.1811,0.1797,0.1821,0.1863,0.1921,0.1985,0.2097,0.2166,0.222,0.2259,0.2282,0.2287,0.2262,0.2279,0.2275,0.2271,0.2263,0.226,0.2295,0.2295,0.2295,0,0.1815,0.1805,0.1819,0.1797,0.1798,0.1811,0.1804,0.1821,0.1837,0.1875,0.1868,0.2007,0.2087,0.2189,0.2198,0.2249,0.2253,0.2257,0.227,0.2267,0.2265,0.2258,0.2255,0.2291,0.2291,0.2292,0.2292,0,0.1722,0.1741,0.1715,0.1725,0.1731,0.1719,0.1755,0.1788,0.1816,0.1829,0.1909,0.1993,0.2073,0.2107,0.2168,0.2215,0.2218,0.2249,0.2261,0.2255,0.225,0.2248,0.2285,0.2287,0.2288,0.2289,0,0,0.1633,0.166,0.166,0.1692,0.1719,0.1713,0.1755,0.1812,0.1834,0.1861,0.1883,0.2001,0.2019,0.2082,0.2154,0.2176,0.2161,0.2204,0.2207,0.2167,0.2173,0.2191,0.2191,0.2185,0.2185,0.2185,0.2165,0,0.158,0.1577,0.16,0.1611,0.1639,0.1703,0.1735,0.1786,0.1827,0.1848,0.1928,0.1967,0.2019,0.2049,0.2078,0.2154,0.2158,0.2162,0.2211,0.2212,0.2205,0.2191,0.2244,0.2232,0.2164,0.2163,0.2163,0,0.1493,0.1536,0.1553,0.1636,0.1652,0.1645,0.1745,0.1768,0.1825,0.1858,0.1894,0.1926,0.1992,0.2003,0.2088,0.2087,0.2117,0.2151,0.2151,0.2199,0.2229,0.2237,0.2233,0.2239,0.2162,0.2162,0.2162,0,0.145,0.1501,0.1539,0.1555,0.1634,0.1661,0.17,0.1763,0.179,0.1836,0.1832,0.1907,0.1926,0.1979,0.2064,0.2068,0.2121,0.214,0.2174,0.2174,0.2246,0.2254,0.2233,0.2158,0.2158,0.2158,0.2158,0,0.1395,0.1423,0.1519,0.153,0.1582,0.1634,0.1647,0.1712,0.1741,0.1756,0.181,0.1829,0.1916,0.1962,0.2032,0.2105,0.2099,0.2157,0.2173,0.2218,0.2223,0.2256,0.2208,0.2157,0.2158,0.2158,0.2158,0,0.131,0.137,0.1413,0.1518,0.1542,0.1564,0.1591,0.1606,0.165,0.1661,0.1668,0.1753,0.1842,0.1923,0.2017,0.2064,0.2124,0.2159,0.2194,0.2215,0.2243,0.2188,0.2114,0.2095,0.2174,0.2174,0.2174,0,0.1257,0.1275,0.1378,0.1392,0.1421,0.1454,0.1478,0.155,0.1564,0.163,0.1642,0.1711,0.179,0.1924,0.2049,0.2153,0.2131,0.2225,0.2248,0.224,0.2191,0.2124,0.2109,0.2299,0.2301,0.2302,0.2303,0,0.118,0.1209,0.1255,0.129,0.1314,0.1352,0.1388,0.1402,0.1496,0.1518,0.1594,0.1652,0.1816,0.1969,0.2103,0.2185,0.219,0.2247,0.2244,0.2282,0.2203,0.2197,0.2292,0.2312,0.2311,0.2311,0.231,0.231,0.1105,0.1117,0.1158,0.1183,0.1211,0.1254,0.1273,0.1325,0.1365,0.1438,0.1533,0.1633,0.1876,0.2093,0.2194,0.2354,0.2236,0.2366,0.2295,0.2226,0.2219,0.2316,0.2356,0.2355,0.2355,0.2354,0.2354,0,0.102,0.1041,0.1049,0.1089,0.109,0.1149,0.1219,0.1251,0.1305,0.1393,0.1459,0.1703,0.1922,0.2147,0.2383,0.2415,0.2402,0.2387,0.2324,0.2304,0.2424,0.2448,0.2504,0.2504,0.2504,0.2504,0.2504,0.2504,0.0977,0.0961,0.0981,0.0964,0.0998,0.1033,0.1089,0.1151,0.1216,0.1328,0.1442,0.1572,0.1904,0.2256,0.2461,0.2457,0.2352,0.2304,0.223,0.2353,0.2347,0.2341,0.2357,0.2393,0.2392,0.2167,0.2165,0.2164]},{"header":{"parameterUnit":"m.s-1","parameterCategory":2,"la1":30.2991,"la2":30.254,"lo1":-89.0895,"lo2":-89.0444,"dy":0.0017,"dx":0.0017,"nx":28,"ny":28,"refTime":"2025-12-10T09:00:00:Z","depth":"0","parameterNumber":3,"parameterNumberName":"V-component_of_CURRENTS"},"data":[0,0,0,0,0,0,0,0,0,0,0,0,0,0,0,0,0,0,0,0,0,0,0,0,0,0,0,0,0,0,0,0,0,0,0,0,0,0,0,0,0,0,0,0,0,0,0,0,0,0,0,0,0,0,0,0,0,0,-0.1237,-0.1236,0,-0.1153,-0.1153,-0.1153,-0.1192,-0.1194,-0.1195,-0.1196,-0.1297,-0.1298,-0.13,0,0,0,0,0,0,0,0,0,0,0,0,0,-0.1244,-0.1246,-0.1238,-0.1236,-0.1234,-0.1154,-0.1153,-0.1153,-0.1192,-0.1194,-0.1195,-0.1196,-0.1296,-0.1298,-0.13,0,0,0,0,0,0,0,0,0,0,0,0,0,-0.1219,-0.1246,-0.1238,-0.1236,-0.1234,-0.1154,-0.1153,-0.1153,-0.1192,-0.1194,-0.1195,-0.1197,-0.1296,-0.1298,-0.13,-0.1281,0,0,-0.1308,-0.1309,0,0,0,0,0,0,0,0,-0.1221,-0.122,-0.1238,-0.1236,-0.1233,-0.1176,-0.1192,-0.1201,-0.1192,-0.1219,-0.1196,-0.1198,-0.1265,-0.127,-0.1263,-0.1285,-0.129,-0.1308,-0.1309,-0.131,-0.1311,0,0,0,0,0,0,0,-0.1223,-0.1223,-0.1215,-0.1235,-0.1232,-0.1173,-0.1175,-0.1193,-0.1245,-0.1217,-0.1217,-0.119,-0.1267,-0.126,-0.1266,-0.1291,-0.1308,-0.131,-0.1311,-0.1312,-0.1371,-0.1371,0,0,0,0,0,0,-0.122,-0.1226,-0.1218,-0.1212,-0.1219,-0.1172,-0.1174,-0.1201,-0.1241,-0.1244,-0.1188,-0.1192,-0.1256,-0.1263,-0.127,-0.1307,-0.131,-0.1313,-0.1314,-0.1371,-0.1371,-0.1371,0,0,0,0,0,0,-0.1222,-0.1222,-0.1221,-0.1204,-0.1199,-0.117,-0.12,-0.1198,-0.1192,-0.1215,-0.1225,-0.1182,-0.1257,-0.1267,-0.1282,-0.1309,-0.1314,-0.1316,-0.1371,-0.1371,-0.1371,-0.1344,0,0,0,0,0,0,-0.1223,-0.1225,-0.1256,-0.1207,-0.1199,-0.1161,-0.1197,-0.1195,-0.1167,-0.1171,-0.1213,-0.1224,-0.1259,-0.1277,-0.1284,-0.1313,-0.1318,-0.1371,-0.1371,-0.1371,-0.1345,-0.1343,-0.1342,0,0,0,0,0,-0.1225,-0.1249,-0.126,-0.1257,-0.1242,-0.1158,-0.115,-0.114,-0.1165,-0.1146,-0.1183,-0.1223,-0.1285,-0.1278,-0.1286,-0.1316,-0.1371,-0.1371,-0.1371,-0.1345,-0.1343,-0.1342,0,0,0,0,0,0,-0.1252,-0.1252,-0.1264,-0.1287,-0.122,-0.1161,-0.1146,-0.1131,-0.1141,-0.1165,-0.1205,-0.1217,-0.1249,-0.1273,-0.1264,-0.1334,-0.1342,-0.1343,-0.132,-0.1318,-0.1317,-0.1281,-0.132,0,0,0,0,0,-0.1274,-0.1304,-0.1255,-0.1262,-0.1241,-0.1194,-0.1165,-0.1147,-0.1133,-0.1139,-0.115,-0.1195,-0.1252,-0.1275,-0.1306,-0.1326,-0.1318,-0.1356,-0.1355,-0.1354,-0.1329,-0.1323,-0.1318,-0.1372,-0.1372,-0.1372,0,0,-0.1267,-0.128,-0.1287,-0.1269,-0.1235,-0.1185,-0.1185,-0.113,-0.1111,-0.115,-0.1142,-0.118,-0.1253,-0.1287,-0.1306,-0.1314,-0.1336,-0.1354,-0.1352,-0.1328,-0.1322,-0.1317,-0.1312,-0.1372,-0.1372,-0.1372,0,0,-0.1244,-0.1297,-0.13,-0.1253,-0.1198,-0.1174,-0.1153,-0.1084,-0.1093,-0.1069,-0.1123,-0.1153,-0.1199,-0.1253,-0.1301,-0.1301,-0.1323,-0.1334,-0.1304,-0.1299,-0.1293,-0.1289,-0.1274,-0.1269,-0.1339,-0.1339,-0.1339,0,-0.1238,-0.1258,-0.1267,-0.1235,-0.1202,-0.1169,-0.1123,-0.1113,-0.1051,-0.1061,-0.1067,-0.113,-0.1187,-0.1261,-0.1276,-0.13,-0.129,-0.1309,-0.1294,-0.129,-0.1285,-0.1272,-0.1266,-0.1338,-0.1338,-0.1338,-0.1338,0,-0.1179,-0.1206,-0.119,-0.1176,-0.1136,-0.1086,-0.106,-0.1037,-0.1045,-0.1029,-0.106,-0.1106,-0.1142,-0.1189,-0.1242,-0.1264,-0.1265,-0.1288,-0.1294,-0.1278,-0.1265,-0.1259,-0.1336,-0.1337,-0.1337,-0.1337,0,0,-0.1142,-0.1159,-0.1149,-0.1153,-0.1111,-0.1062,-0.1058,-0.1036,-0.103,-0.1009,-0.0998,-0.1099,-0.1095,-0.1145,-0.1205,-0.1212,-0.1194,-0.1235,-0.1236,-0.1211,-0.1166,-0.1164,-0.1158,-0.1212,-0.1211,-0.121,-0.1171,0,-0.1094,-0.1069,-0.1081,-0.1036,-0.1025,-0.1017,-0.1005,-0.0985,-0.0989,-0.0959,-0.1025,-0.1033,-0.1096,-0.111,-0.1127,-0.1179,-0.1175,-0.1201,-0.1193,-0.1192,-0.1184,-0.115,-0.1143,-0.1106,-0.1165,-0.1164,-0.1163,0,-0.1011,-0.1039,-0.1004,-0.1023,-0.101,-0.0968,-0.0956,-0.0932,-0.0924,-0.0931,-0.0938,-0.0956,-0.099,-0.1022,-0.1068,-0.108,-0.1109,-0.1137,-0.1137,-0.1133,-0.1178,-0.1132,-0.1093,-0.1103,-0.1154,-0.1155,-0.1156,0,-0.0967,-0.097,-0.0967,-0.0953,-0.0956,-0.0948,-0.0933,-0.0917,-0.0907,-0.0885,-0.0865,-0.0894,-0.09,-0.0932,-0.1005,-0.1027,-0.1026,-0.1069,-0.1086,-0.1086,-0.1074,-0.1076,-0.1031,-0.1062,-0.1062,-0.1062,-0.1062,0,-0.091,-0.091,-0.0947,-0.0933,-0.0922,-0.0916,-0.0875,-0.0873,-0.0844,-0.0814,-0.0833,-0.0818,-0.0874,-0.089,-0.0952,-0.0996,-0.0986,-0.1053,-0.1068,-0.1067,-0.1068,-0.1073,-0.1085,-0.106,-0.1061,-0.1061,-0.1061,0,-0.0856,-0.0876,-0.0878,-0.0899,-0.0898,-0.0873,-0.0838,-0.0801,-0.0794,-0.0747,-0.0735,-0.0749,-0.0771,-0.0823,-0.0873,-0.0931,-0.1009,-0.0988,-0.0978,-0.0991,-0.1019,-0.1031,-0.1107,-0.1176,-0.0986,-0.0985,-0.0985,0,-0.0833,-0.0834,-0.0839,-0.0808,-0.0816,-0.0789,-0.0758,-0.0769,-0.0736,-0.0715,-0.069,-0.0689,-0.0688,-0.075,-0.0838,-0.0901,-0.0986,-0.0938,-0.0983,-0.0991,-0.1015,-0.1137,-0.12,-0.096,-0.096,-0.0959,-0.0959,0,-0.0812,-0.08,-0.0786,-0.0729,-0.0698,-0.0673,-0.0642,-0.0636,-0.0636,-0.0612,-0.0587,-0.0578,-0.0644,-0.0691,-0.0778,-0.085,-0.0991,-0.0931,-0.0941,-0.0976,-0.1103,-0.1187,-0.1014,-0.0955,-0.0955,-0.0956,-0.0956,-0.0956,-0.0773,-0.0743,-0.0686,-0.0626,-0.0587,-0.0547,-0.0526,-0.0512,-0.0485,-0.0461,-0.0485,-0.045,-0.0532,-0.065,-0.0765,-0.0892,-0.0978,-0.093,-0.0938,-0.1058,-0.1139,-0.0949,-0.0912,-0.0912,-0.0913,-0.0913,-0.0913,0,-0.0715,-0.0658,-0.0581,-0.0513,-0.0449,-0.0455,-0.0432,-0.042,-0.0405,-0.0371,-0.0347,-0.03,-0.041,-0.0548,-0.0707,-0.0841,-0.1025,-0.0917,-0.1061,-0.1124,-0.0927,-0.0936,-0.09,-0.09,-0.09,-0.09,-0.09,-0.09,-0.0672,-0.0575,-0.0528,-0.04,-0.0352,-0.0309,-0.0305,-0.0303,-0.0281,-0.0196,-0.0126,-0.0079,-0.0032,-0.0424,-0.0685,-0.0798,-0.0988,-0.1061,-0.1146,-0.0941,-0.0943,-0.0945,-0.0955,-0.0924,-0.0924,-0.1405,-0.1408,-0.1411]}],[{"header":{"parameterUnit":"m.s-1","parameterCategory":2,"la1":30.2991,"la2":30.254,"lo1":-89.0895,"lo2":-89.0444,"dy":0.0017,"dx":0.0017,"nx":28,"ny":28,"refTime":"2025-12-10T09:00:00:Z","depth":"2","parameterNumber":2,"parameterNumberName":"U-component_of_CURRENTS"},"data":[0,0,0,0,0,0,0,0,0,0,0,0,0,0,0,0,0,0,0,0,0,0,0,0,0,0,0,0,0,0,0,0,0,0,0,0,0,0,0,0,0,0,0,0,0,0,0,0,0,0,0,0,0,0,0,0,0,0,-0.0307,-0.0303,0,-0.0093,-0.0092,-0.0092,0.0004,0.0005,0.0007,0.0008,-0.0201,-0.0207,-0.0214,0,0,0,0,0,0,0,0,0,0,0,0,0,-0.0459,-0.046,-0.0307,-0.0303,-0.0299,-0.0093,-0.0092,-0.0091,0.0003,0.0005,0.0007,0.0009,-0.0198,-0.0207,-0.0215,0,0,0,0,0,0,0,0,0,0,0,0,0,-0.0353,-0.046,-0.0308,-0.0212,-0.02,-0.0094,-0.0092,-0.0091,0.0003,0.0005,0.0007,0.0009,-0.0196,-0.0206,-0.0216,-0.0325,0,0,-0.0248,-0.0252,0,0,0,0,0,0,0,0,-0.0359,-0.035,-0.0231,-0.0219,-0.0205,-0.0052,-0.022,-0.0184,0.0002,-0.0095,0.0008,0.0011,-0.018,-0.0191,-0.0177,-0.0335,-0.0344,-0.0249,-0.0255,-0.026,-0.0263,0,0,0,0,0,0,0,-0.0367,-0.0357,-0.0242,-0.0226,-0.021,-0.0118,-0.0105,-0.0212,-0.0175,-0.0086,-0.0074,-0.002,-0.0178,-0.0167,-0.0182,-0.0347,-0.0249,-0.0258,-0.0264,-0.0268,-0.0461,-0.046,0,0,0,0,0,0,-0.0367,-0.0366,-0.0249,-0.0234,-0.0256,-0.0117,-0.0102,-0.0119,-0.0164,-0.016,-0.0022,-0.0016,-0.015,-0.017,-0.019,-0.0234,-0.026,-0.0269,-0.0275,-0.0462,-0.0461,-0.0459,0,0,0,0,0,0,-0.0372,-0.0362,-0.0257,-0.0274,-0.0252,-0.0116,-0.0136,-0.0116,-0.0038,-0.0107,-0.0115,0.0046,-0.0149,-0.0175,-0.0242,-0.0246,-0.0274,-0.0284,-0.0463,-0.0462,-0.046,-0.0382,0,0,0,0,0,0,-0.0379,-0.0367,-0.036,-0.0278,-0.0251,-0.0179,-0.0135,-0.0113,-0.0003,0.0008,-0.0055,-0.0073,-0.015,-0.0226,-0.0253,-0.026,-0.0292,-0.0465,-0.0463,-0.0461,-0.0386,-0.0378,-0.0371,0,0,0,0,0,-0.0387,-0.0381,-0.0364,-0.0345,-0.0256,-0.0176,-0.0157,-0.0062,-0.0001,0.0017,-0.0011,-0.0068,-0.023,-0.0235,-0.0266,-0.0277,-0.0466,-0.0463,-0.0461,-0.039,-0.038,-0.0371,0,0,0,0,0,0,-0.0425,-0.0367,-0.0346,-0.032,-0.0245,-0.0152,-0.0097,-0.0028,-0.0024,-0.0009,-0.0078,-0.0103,-0.0148,-0.0222,-0.0223,-0.0317,-0.035,-0.0353,-0.0284,-0.0276,-0.0269,-0.0261,-0.03,0,0,0,0,0,-0.0436,-0.0435,-0.035,-0.0327,-0.0288,-0.0186,-0.0124,-0.0061,-0.0035,-0.0021,-0.0021,-0.0074,-0.0173,-0.0226,-0.0291,-0.0376,-0.0382,-0.0391,-0.0384,-0.0377,-0.0387,-0.0357,-0.0347,-0.0451,-0.0451,-0.0451,0,0,-0.0438,-0.0402,-0.0397,-0.0334,-0.027,-0.0217,-0.0149,-0.0049,-0.0018,-0.0063,-0.0005,-0.0038,-0.0179,-0.0245,-0.0275,-0.0309,-0.0347,-0.0374,-0.0368,-0.0382,-0.0353,-0.0343,-0.0334,-0.0449,-0.045,-0.045,0,0,-0.0414,-0.0419,-0.0387,-0.0319,-0.0202,-0.0194,-0.0151,-0.0015,0.0021,0.0038,0.0028,0.0009,-0.0099,-0.0177,-0.0262,-0.0259,-0.0286,-0.0264,-0.0259,-0.0228,-0.022,-0.0212,-0.0189,-0.018,-0.0286,-0.0285,-0.0285,0,-0.0409,-0.0383,-0.0356,-0.0272,-0.0224,-0.0181,-0.0121,-0.0103,0.0012,0.0021,0.0059,-0.0004,-0.0087,-0.0224,-0.021,-0.0247,-0.0221,-0.029,-0.0218,-0.021,-0.0204,-0.0183,-0.0174,-0.0281,-0.0282,-0.0282,-0.0283,0,-0.0332,-0.0299,-0.0267,-0.0214,-0.0168,-0.0118,-0.0082,-0.0031,0.0008,0.0042,0.0032,-0.0027,-0.0065,-0.0094,-0.018,-0.0186,-0.0176,-0.0187,-0.0239,-0.0189,-0.0169,-0.0162,-0.0276,-0.0277,-0.0278,-0.0279,0,0,-0.0361,-0.0257,-0.0235,-0.0196,-0.0137,-0.0094,-0.0097,-0.0105,-0.0071,-0.0011,0.0038,-0.0103,-0.0039,-0.0124,-0.0166,-0.0166,-0.0092,-0.0152,-0.0153,-0.0127,-0.0004,0.0069,0.0084,-0.0067,-0.0065,-0.0064,-0.0003,0,-0.0322,-0.0219,-0.0181,-0.0113,-0.0072,-0.0058,-0.0047,-0.0029,-0.0046,0.0025,-0.0051,-0.0011,-0.0094,-0.0046,-0.0077,-0.0082,-0.0069,-0.0108,-0.0061,-0.0061,0.0001,0.0096,0.0008,0.0063,0.0005,0.0006,0.0007,0,-0.0204,-0.0203,-0.0136,-0.0069,-0.0042,-0.0004,-0.0011,0.004,0.0053,0.0072,0.006,0.0073,0.004,0.0043,-0.0008,-0.0014,0.0003,-0.0002,0.0001,0.0041,0.0028,-0.0001,0.0078,0.0019,0.0018,0.0017,0.0017,0,-0.0212,-0.0123,-0.0119,-0.0082,-0.0032,-0.0001,0.0045,0.0071,0.0103,0.0175,0.021,0.0167,0.0224,0.0185,0.0135,0.0108,0.0136,0.0095,0.0162,0.0166,0.0081,0.0077,0.0126,0.0126,0.0126,0.0126,0.0126,0,-0.0169,-0.0135,-0.0105,-0.0099,-0.0049,0.0055,0.0136,0.0164,0.0239,0.0293,0.0292,0.0307,0.0286,0.0273,0.0201,0.0198,0.0182,0.0188,0.0201,0.011,0.0107,0.0047,0.0037,0.0128,0.0128,0.0127,0.0127,0,-0.0145,-0.0117,-0.0093,-0.0074,-0.0035,0.0043,0.0203,0.0266,0.0339,0.0413,0.0466,0.0458,0.0481,0.0409,0.0404,0.0328,0.0302,0.0319,0.0218,0.022,0.0292,0.0285,0.0403,0.0406,0.0409,0.0411,0.0413,0,-0.0139,-0.0124,-0.0096,-0.0022,-0.0007,0.013,0.0232,0.0316,0.0365,0.0467,0.0484,0.0575,0.0563,0.0552,0.0517,0.0464,0.0422,0.0391,0.0322,0.0327,0.0327,0.0315,0.0305,0.0229,0.023,0.023,0.023,0,-0.014,-0.0107,-0.0112,-0.0018,0.0085,0.0181,0.0319,0.0334,0.0456,0.0472,0.0526,0.0555,0.0619,0.0566,0.0575,0.0502,0.0383,0.0404,0.0441,0.0196,0.0176,0.0172,0.0164,0.0233,0.0233,0.0232,0.0232,0.0232,-0.0115,-0.0129,-0.007,0.0011,0.0128,0.0212,0.0245,0.0346,0.0387,0.041,0.0489,0.0483,0.0493,0.0464,0.0469,0.0503,0.05,0.0407,0.04,0.0394,0.0387,0.0376,0.0467,0.0468,0.0469,0.0469,0.047,0,-0.0087,-0.0078,-0.0001,0.0033,0.0087,0.0186,0.027,0.0276,0.0262,0.0372,0.0396,0.0289,0.0292,0.0341,0.0408,0.0445,0.0377,0.0424,0.0291,0.0288,0.0285,0.0266,0.0318,0.0318,0.0318,0.0319,0,0,-0.0079,-0.0022,-0.005,-0.0012,0.0018,0.0053,0.0065,0.0097,0.0171,0.0172,0.0176,0.0201,0.0259,0.0233,0.0271,0.0334,0.031,0.0324,0.0429,0.0265,0.0263,0.0245,0.0211,0,0,0,0,0]},{"header":{"parameterUnit":"m.s-1","parameterCategory":2,"la1":30.2991,"la2":30.254,"lo1":-89.0895,"lo2":-89.0444,"dy":0.0017,"dx":0.0017,"nx":28,"ny":28,"refTime":"2025-12-10T09:00:00:Z","depth":"2","parameterNumber":3,"parameterNumberName":"V-component_of_CURRENTS"},"data":[0,0,0,0,0,0,0,0,0,0,0,0,0,0,0,0,0,0,0,0,0,0,0,0,0,0,0,0,0,0,0,0,0,0,0,0,0,0,0,0,0,0,0,0,0,0,0,0,0,0,0,0,0,0,0,0,0,0,0.0328,0.0325,0,0.0192,0.0193,0.0193,0.0156,0.0155,0.0153,0.0151,0.0279,0.0284,0.0289,0,0,0,0,0,0,0,0,0,0,0,0,0,0.0583,0.0581,0.0328,0.0324,0.032,0.0192,0.0193,0.0193,0.0156,0.0154,0.0153,0.0151,0.0278,0.0283,0.0289,0,0,0,0,0,0,0,0,0,0,0,0,0,0.0487,0.058,0.0329,0.0267,0.0258,0.0192,0.0193,0.0193,0.0157,0.0154,0.0152,0.015,0.0276,0.0283,0.029,0.0383,0,0,0.0312,0.0316,0,0,0,0,0,0,0,0,0.0493,0.0481,0.028,0.0271,0.0261,0.0166,0.0327,0.0261,0.0157,0.0223,0.0151,0.0149,0.025,0.026,0.0273,0.0389,0.0395,0.0313,0.0317,0.0321,0.0323,0,0,0,0,0,0,0,0.0499,0.0486,0.0301,0.0275,0.0263,0.0253,0.024,0.0316,0.0277,0.0217,0.0208,0.0152,0.025,0.0266,0.0276,0.0397,0.0313,0.0319,0.0324,0.0327,0.0429,0.0427,0,0,0,0,0,0,0.0464,0.0493,0.0305,0.0294,0.0344,0.0248,0.0234,0.022,0.027,0.0266,0.0154,0.015,0.0254,0.0267,0.028,0.0319,0.0321,0.0327,0.0332,0.043,0.0428,0.0427,0,0,0,0,0,0,0.0471,0.0451,0.031,0.0367,0.0345,0.0243,0.0229,0.0218,0.0161,0.0214,0.022,0.0095,0.0253,0.027,0.0346,0.0326,0.0331,0.0337,0.0432,0.043,0.0428,0.0445,0,0,0,0,0,0,0.0481,0.0456,0.043,0.0366,0.0339,0.0282,0.0228,0.0216,0.0121,0.0114,0.0168,0.0181,0.0252,0.0335,0.0353,0.0336,0.0343,0.0435,0.0431,0.0428,0.0446,0.0443,0.044,0,0,0,0,0,0.0491,0.0464,0.0432,0.0405,0.031,0.0281,0.0273,0.0207,0.0119,0.0139,0.0165,0.0176,0.0323,0.0343,0.0364,0.0348,0.0436,0.0432,0.0429,0.0448,0.0444,0.0441,0,0,0,0,0,0,0.0547,0.0453,0.0417,0.0358,0.0321,0.0264,0.0232,0.0165,0.0192,0.0155,0.021,0.0231,0.0277,0.0302,0.032,0.0354,0.0359,0.0359,0.0365,0.0362,0.0359,0.0365,0.0349,0,0,0,0,0,0.0545,0.0528,0.0434,0.0402,0.0361,0.0281,0.0239,0.0187,0.0179,0.0178,0.0191,0.0211,0.0288,0.0315,0.0377,0.0429,0.0413,0.0406,0.0403,0.0401,0.0413,0.0364,0.0359,0.0414,0.0414,0.0414,0,0,0.0547,0.05,0.0479,0.0415,0.0368,0.0314,0.0259,0.018,0.0155,0.0198,0.0173,0.0214,0.0298,0.0364,0.0378,0.0379,0.0375,0.0396,0.0395,0.0408,0.036,0.0355,0.035,0.0412,0.0412,0.0412,0,0,0.0556,0.0508,0.0481,0.0414,0.0308,0.0306,0.0259,0.0159,0.0146,0.0146,0.0161,0.0192,0.0257,0.0332,0.0382,0.0389,0.0364,0.0357,0.0362,0.0315,0.0311,0.0307,0.028,0.0274,0.0353,0.0353,0.0353,0,0.0551,0.0509,0.0475,0.0389,0.0338,0.0284,0.0232,0.0221,0.0159,0.0184,0.0132,0.0202,0.0253,0.0375,0.0374,0.0389,0.0352,0.0386,0.0314,0.031,0.0306,0.0279,0.0272,0.0353,0.0353,0.0353,0.0353,0,0.0499,0.0442,0.0413,0.0334,0.0308,0.0252,0.0206,0.0196,0.0154,0.0139,0.0186,0.0245,0.0287,0.0289,0.0354,0.0358,0.0338,0.0323,0.0334,0.0302,0.0275,0.0267,0.0354,0.0353,0.0353,0.0353,0,0,0.0509,0.0416,0.0378,0.0357,0.0258,0.0247,0.0248,0.0292,0.0277,0.0236,0.0234,0.0346,0.031,0.036,0.0392,0.0363,0.0307,0.0323,0.032,0.0315,0.0197,0.0218,0.0212,0.0262,0.0261,0.026,0.0191,0,0.0481,0.0395,0.0354,0.03,0.0263,0.024,0.0248,0.0257,0.0292,0.0271,0.0319,0.0307,0.0356,0.0328,0.0329,0.0321,0.0285,0.0328,0.0212,0.0209,0.0248,0.0204,0.0212,0.0154,0.0183,0.0182,0.0181,0,0.0357,0.0377,0.033,0.0319,0.0292,0.0261,0.0321,0.0285,0.0299,0.0301,0.0324,0.0309,0.033,0.0284,0.0291,0.0304,0.0247,0.0219,0.0215,0.0229,0.0217,0.0186,0.0139,0.0168,0.0169,0.017,0.0171,0,0.0376,0.0309,0.0341,0.0292,0.0285,0.0299,0.0279,0.0291,0.0286,0.0256,0.0245,0.0277,0.0218,0.0199,0.0189,0.0199,0.0134,0.0135,0.0112,0.0114,0.01,0.0102,0.0067,0.0067,0.0067,0.0067,0.0068,0,0.0316,0.0301,0.0337,0.0329,0.0338,0.0273,0.0258,0.0254,0.0217,0.0195,0.0204,0.0225,0.0169,0.0156,0.0154,0.0137,0.0107,0.0113,0.0093,0.0105,0.0109,0.0107,0.0112,0.0065,0.0065,0.0066,0.0066,0,0.0267,0.0268,0.0301,0.0351,0.0326,0.0291,0.0196,0.0191,0.0148,0.0115,0.0076,0.0127,0.0114,0.0108,0.004,0.007,0.0048,0.0025,0.006,0.0046,0.0069,0.0076,0.0005,0.0005,0.0005,0.0005,0.0005,0,0.024,0.0255,0.0311,0.0287,0.0297,0.0225,0.0171,0.0131,0.0126,0.0104,0.0107,0.0069,0.0162,0.0135,0.009,0.007,0.0024,0.0003,0.0039,0.0074,0.006,0.0067,0.0074,0.0019,0.0019,0.0019,0.002,0,0.0225,0.0238,0.0304,0.0291,0.0255,0.0237,0.0162,0.016,0.0101,0.0152,0.0221,0.0285,0.0233,0.0237,0.014,0.0133,0.0026,0.0007,-0.0005,0.0049,0.0085,0.0073,0.0079,0.0021,0.0021,0.0021,0.002,0.002,0.02,0.027,0.0317,0.0296,0.0262,0.0274,0.0295,0.0271,0.0315,0.0358,0.0358,0.0449,0.0255,0.0231,0.0148,0.0048,0.0085,0.0021,0.0021,0.002,0.0049,0.0085,0.0027,0.0027,0.0027,0.0026,0.0026,0,0.0185,0.0257,0.0277,0.0356,0.0389,0.0328,0.0329,0.0372,0.0479,0.0463,0.0553,0.0444,0.0408,0.0231,0.0126,0.0055,0.0055,-0.0018,-0.0022,-0.0021,-0.002,0.0006,-0.0028,-0.0029,-0.003,-0.003,0,0,0.0207,0.0244,0.0326,0.0435,0.0487,0.0573,0.0607,0.0646,0.0632,0.0681,0.0685,0.0608,0.0414,0.0243,0.0111,0.0067,0.005,0.0055,0.0116,0.0132,0.0133,0.0026,0.0072,0,0,0,0,0]}],[{"header":{"parameterUnit":"m.s-1","parameterCategory":2,"la1":30.2991,"la2":30.254,"lo1":-89.0895,"lo2":-89.0444,"dy":0.0017,"dx":0.0017,"nx":28,"ny":28,"refTime":"2025-12-10T09:00:00:Z","depth":"4","parameterNumber":2,"parameterNumberName":"U-component_of_CURRENTS"},"data":[0,0,0,0,0,0,0,0,0,0,0,0,0,0,0,0,0,0,0,0,0,0,0,0,0,0,0,0,0,0,0,0,0,0,0,0,0,0,0,0,0,0,0,0,0,0,0,0,0,0,0,0,0,0,0,0,0,0,-0.0556,-0.0557,0,-0.0611,-0.0611,-0.0611,-0.0626,-0.0626,-0.0627,-0.0627,-0.0701,-0.0703,-0.0704,0,0,0,0,0,0,0,0,0,0,0,0,0,-0.0477,-0.0477,-0.0555,-0.0557,-0.0558,-0.0611,-0.0611,-0.0611,-0.0626,-0.0626,-0.0627,-0.0627,-0.0701,-0.0703,-0.0705,0,0,0,0,0,0,0,0,0,0,0,0,0,-0.0512,-0.0477,-0.0555,-0.0578,-0.0581,-0.0611,-0.0611,-0.0611,-0.0626,-0.0627,-0.0627,-0.0628,-0.07,-0.0703,-0.0705,-0.0707,0,0,-0.0712,-0.0713,0,0,0,0,0,0,0,0,-0.051,-0.0513,-0.0573,-0.0577,-0.058,-0.0619,-0.0611,-0.0647,-0.0626,-0.06,-0.0627,-0.0628,-0.0681,-0.0684,-0.0682,-0.0711,-0.0714,-0.0712,-0.0714,-0.0715,-0.0716,0,0,0,0,0,0,0,-0.0507,-0.0511,-0.0569,-0.0575,-0.0579,-0.0591,-0.0596,-0.0617,-0.063,-0.0603,-0.0606,-0.0625,-0.0681,-0.0679,-0.0684,-0.0715,-0.0712,-0.0714,-0.0716,-0.0717,-0.0884,-0.0887,0,0,0,0,0,0,-0.0515,-0.0509,-0.0568,-0.0572,-0.0555,-0.0593,-0.0597,-0.06,-0.063,-0.0637,-0.0624,-0.0625,-0.0675,-0.0681,-0.0687,-0.0812,-0.0715,-0.0717,-0.0718,-0.0881,-0.0885,-0.0888,0,0,0,0,0,0,-0.0513,-0.0519,-0.0566,-0.0549,-0.0557,-0.0594,-0.0596,-0.0601,-0.0623,-0.0648,-0.0654,-0.0646,-0.0676,-0.0683,-0.0739,-0.0811,-0.0718,-0.072,-0.0878,-0.0883,-0.0887,-0.0986,0,0,0,0,0,0,-0.051,-0.0517,-0.0518,-0.0549,-0.0558,-0.0592,-0.0597,-0.0601,-0.0636,-0.0639,-0.0668,-0.0674,-0.0677,-0.0735,-0.0741,-0.0812,-0.0722,-0.0874,-0.088,-0.0885,-0.0979,-0.0994,-0.1006,0,0,0,0,0,-0.0506,-0.0511,-0.0517,-0.0525,-0.0559,-0.0593,-0.0598,-0.0622,-0.0637,-0.0644,-0.0682,-0.0674,-0.0777,-0.0739,-0.0745,-0.0819,-0.0871,-0.0878,-0.0885,-0.0973,-0.0991,-0.1006,0,0,0,0,0,0,-0.0488,-0.0514,-0.0522,-0.0537,-0.0568,-0.0599,-0.0614,-0.0636,-0.0668,-0.0687,-0.0698,-0.0707,-0.0785,-0.0786,-0.0745,-0.0886,-0.0829,-0.0837,-0.0894,-0.0911,-0.0924,-0.0892,-0.0724,0,0,0,0,0,-0.0483,-0.0487,-0.0522,-0.0538,-0.0552,-0.0587,-0.0606,-0.0635,-0.0672,-0.0687,-0.0713,-0.0759,-0.0813,-0.0848,-0.0877,-0.0947,-0.0915,-0.1005,-0.1018,-0.1029,-0.101,-0.1063,-0.1079,-0.0911,-0.0911,-0.0911,0,0,-0.0485,-0.05,-0.0505,-0.0534,-0.0557,-0.0594,-0.0598,-0.0647,-0.0688,-0.0692,-0.0753,-0.0797,-0.0839,-0.0921,-0.0959,-0.0937,-0.1054,-0.1038,-0.1047,-0.1021,-0.1072,-0.1088,-0.1102,-0.0915,-0.0914,-0.0914,0,0,-0.0498,-0.0501,-0.0511,-0.0534,-0.0585,-0.0616,-0.0637,-0.0689,-0.0714,-0.0799,-0.0814,-0.0887,-0.0976,-0.1005,-0.104,-0.1141,-0.1115,-0.1183,-0.1238,-0.1292,-0.1305,-0.1317,-0.1259,-0.1264,-0.1202,-0.1202,-0.1203,0,-0.0507,-0.0511,-0.0524,-0.0547,-0.0569,-0.063,-0.0661,-0.0705,-0.0775,-0.0795,-0.084,-0.0979,-0.1014,-0.11,-0.1155,-0.117,-0.1167,-0.1173,-0.1307,-0.1318,-0.1328,-0.1266,-0.1271,-0.1208,-0.1207,-0.1207,-0.1206,0,-0.0526,-0.0534,-0.0547,-0.0588,-0.0617,-0.0657,-0.0721,-0.076,-0.0834,-0.0887,-0.0996,-0.107,-0.1154,-0.1202,-0.1224,-0.1323,-0.1283,-0.1308,-0.1259,-0.1351,-0.1279,-0.1283,-0.1216,-0.1214,-0.1212,-0.1211,0,0,-0.0523,-0.0554,-0.0551,-0.0574,-0.0638,-0.0674,-0.0732,-0.0794,-0.0848,-0.0964,-0.1025,-0.1173,-0.1234,-0.1274,-0.1323,-0.1382,-0.1452,-0.1398,-0.1398,-0.1323,-0.151,-0.1282,-0.1262,-0.1532,-0.1534,-0.1536,-0.1416,0,-0.0532,-0.0551,-0.0574,-0.0629,-0.0649,-0.0701,-0.0755,-0.0827,-0.0911,-0.0986,-0.1087,-0.1211,-0.1262,-0.1357,-0.1417,-0.1449,-0.1474,-0.1477,-0.1445,-0.144,-0.1216,-0.1264,-0.1543,-0.1418,-0.1419,-0.1419,-0.142,0,-0.053,-0.0539,-0.0574,-0.0631,-0.0649,-0.0737,-0.0811,-0.0877,-0.0974,-0.105,-0.1171,-0.1244,-0.1355,-0.1409,-0.1489,-0.1505,-0.1512,-0.1522,-0.1519,-0.1267,-0.122,-0.1319,-0.1424,-0.1424,-0.1423,-0.1423,-0.1423,0,-0.0492,-0.0537,-0.0564,-0.0584,-0.0674,-0.0741,-0.0829,-0.0924,-0.0965,-0.1133,-0.1177,-0.1317,-0.1389,-0.1473,-0.144,-0.1533,-0.1437,-0.1568,-0.1336,-0.1315,-0.1511,-0.15,-0.1601,-0.1601,-0.1601,-0.1602,-0.1602,0,-0.0477,-0.0502,-0.0583,-0.0609,-0.0698,-0.0778,-0.0894,-0.0988,-0.1084,-0.1087,-0.1258,-0.1234,-0.1426,-0.1357,-0.1402,-0.1291,-0.1406,-0.1313,-0.1283,-0.1549,-0.1545,-0.1509,-0.15,-0.1597,-0.1598,-0.1599,-0.16,0,-0.0453,-0.0484,-0.0534,-0.0639,-0.0698,-0.0793,-0.0947,-0.0971,-0.112,-0.1114,-0.1174,-0.1201,-0.1154,-0.1165,-0.12,-0.1187,-0.1148,-0.1056,-0.1192,-0.1175,-0.1022,-0.102,-0.0926,-0.0917,-0.091,-0.0903,-0.0898,0,-0.0442,-0.0462,-0.0558,-0.0597,-0.0688,-0.0823,-0.0859,-0.1012,-0.098,-0.1008,-0.0923,-0.0919,-0.0903,-0.0721,-0.0809,-0.0811,-0.0817,-0.0793,-0.1081,-0.0978,-0.096,-0.097,-0.0978,-0.0886,-0.0885,-0.0883,-0.0881,0,-0.0429,-0.0471,-0.0498,-0.0556,-0.0635,-0.0665,-0.073,-0.0733,-0.0783,-0.0864,-0.0698,-0.0692,-0.0547,-0.0576,-0.0494,-0.052,-0.0856,-0.072,-0.0744,-0.1015,-0.0929,-0.0921,-0.0938,-0.0855,-0.0859,-0.0861,-0.0863,0,-0.0417,-0.0427,-0.0441,-0.0513,-0.0525,-0.0492,-0.0582,-0.0504,-0.052,-0.0544,-0.0425,-0.042,-0.0431,-0.04,-0.0315,-0.0319,-0.0462,-0.0564,-0.0599,-0.0629,-0.0597,-0.0449,-0.0178,0,0,0,0,0,-0.0383,-0.0376,-0.0394,-0.042,-0.0389,-0.0414,-0.0411,-0.0459,-0.0485,-0.0327,-0.0409,-0.0269,-0.0246,-0.0229,-0.0204,-0.0269,-0.0483,-0.0243,-0.0625,-0.0712,-0.0742,-0.0738,0,0,0,0,0,0,-0.0362,-0.0357,-0.0358,-0.0278,-0.0276,-0.0226,-0.0237,-0.0276,-0.0192,-0.0239,-0.02,-0.0244,-0.0201,-0.0239,-0.0189,-0.0196,-0.0434,-0.0248,-0.0247,-0.0696,-0.0722,-0.0746,-0.0753,0,0,0,0,0]},{"header":{"parameterUnit":"m.s-1","parameterCategory":2,"la1":30.2991,"la2":30.254,"lo1":-89.0895,"lo2":-89.0444,"dy":0.0017,"dx":0.0017,"nx":28,"ny":28,"refTime":"2025-12-10T09:00:00:Z","depth":"4","parameterNumber":3,"parameterNumberName":"V-component_of_CURRENTS"},"data":[0,0,0,0,0,0,0,0,0,0,0,0,0,0,0,0,0,0,0,0,0,0,0,0,0,0,0,0,0,0,0,0,0,0,0,0,0,0,0,0,0,0,0,0,0,0,0,0,0,0,0,0,0,0,0,0,0,0,-0.0151,-0.0151,0,-0.0144,-0.0144,-0.0143,-0.0096,-0.0095,-0.0094,-0.0093,-0.0084,-0.0085,-0.0086,0,0,0,0,0,0,0,0,0,0,0,0,0,-0.0117,-0.0118,-0.0151,-0.0151,-0.0151,-0.0144,-0.0144,-0.0143,-0.0096,-0.0095,-0.0094,-0.0092,-0.0084,-0.0085,-0.0086,0,0,0,0,0,0,0,0,0,0,0,0,0,-0.0122,-0.0118,-0.0151,-0.0127,-0.0125,-0.0144,-0.0144,-0.0143,-0.0097,-0.0095,-0.0093,-0.0092,-0.0084,-0.0085,-0.0086,-0.0127,0,0,-0.009,-0.009,0,0,0,0,0,0,0,0,-0.0122,-0.0124,-0.0131,-0.0129,-0.0126,-0.012,-0.0128,-0.0138,-0.0097,-0.0107,-0.0093,-0.0091,-0.0098,-0.0098,-0.0099,-0.0126,-0.0126,-0.009,-0.0091,-0.0091,-0.0092,0,0,0,0,0,0,0,-0.0122,-0.0124,-0.0148,-0.0131,-0.0128,-0.0114,-0.0113,-0.013,-0.0111,-0.0106,-0.0102,-0.0103,-0.0096,-0.0098,-0.0099,-0.0126,-0.009,-0.0091,-0.0092,-0.0092,-0.0185,-0.0187,0,0,0,0,0,0,-0.0126,-0.0124,-0.0148,-0.0147,-0.0121,-0.0116,-0.0115,-0.0123,-0.0111,-0.0108,-0.0104,-0.0101,-0.0097,-0.0097,-0.0098,-0.0142,-0.0091,-0.0092,-0.0093,-0.0183,-0.0186,-0.0187,0,0,0,0,0,0,-0.0126,-0.0129,-0.0148,-0.0135,-0.0136,-0.0119,-0.0128,-0.0124,-0.0124,-0.011,-0.0106,-0.0108,-0.0096,-0.0096,-0.0113,-0.0142,-0.0093,-0.0094,-0.0181,-0.0184,-0.0187,-0.0233,0,0,0,0,0,0,-0.0125,-0.0129,-0.0134,-0.0136,-0.0137,-0.0158,-0.0129,-0.0125,-0.0127,-0.0122,-0.0113,-0.011,-0.0094,-0.0111,-0.0114,-0.0142,-0.0095,-0.0179,-0.0183,-0.0186,-0.0229,-0.0237,-0.0244,0,0,0,0,0,-0.0124,-0.0141,-0.0135,-0.0137,-0.0146,-0.0159,-0.0159,-0.0139,-0.0129,-0.0133,-0.0127,-0.011,-0.0134,-0.0114,-0.0117,-0.0146,-0.0178,-0.0182,-0.0185,-0.0226,-0.0236,-0.0243,0,0,0,0,0,0,-0.0123,-0.0138,-0.0131,-0.015,-0.0152,-0.0151,-0.0156,-0.0149,-0.015,-0.0145,-0.013,-0.0128,-0.0161,-0.015,-0.0128,-0.0185,-0.0155,-0.016,-0.0185,-0.0194,-0.0201,-0.0193,-0.0096,0,0,0,0,0,-0.0129,-0.0147,-0.0153,-0.0165,-0.0172,-0.0168,-0.0171,-0.016,-0.0162,-0.016,-0.0157,-0.0161,-0.0183,-0.0182,-0.0199,-0.0225,-0.0189,-0.0248,-0.0255,-0.0261,-0.0259,-0.0215,-0.0217,-0.02,-0.02,-0.02,0,0,-0.0133,-0.0142,-0.0151,-0.0166,-0.0169,-0.0192,-0.0165,-0.0175,-0.0196,-0.0163,-0.019,-0.0193,-0.02,-0.023,-0.0243,-0.0219,-0.0252,-0.0266,-0.0271,-0.0265,-0.0219,-0.0221,-0.0221,-0.0203,-0.0203,-0.0202,0,0,-0.0144,-0.0159,-0.0173,-0.0188,-0.0196,-0.0207,-0.0215,-0.0221,-0.0223,-0.0246,-0.0241,-0.0254,-0.0275,-0.0284,-0.0293,-0.0352,-0.03,-0.0363,-0.0379,-0.0338,-0.0338,-0.0337,-0.0304,-0.03,-0.0354,-0.0354,-0.0354,0,-0.0141,-0.0168,-0.0178,-0.0197,-0.0222,-0.0221,-0.0251,-0.0263,-0.0271,-0.029,-0.0258,-0.03,-0.0302,-0.0348,-0.0361,-0.0368,-0.0329,-0.0343,-0.0343,-0.0342,-0.0341,-0.0307,-0.0302,-0.0357,-0.0356,-0.0356,-0.0356,0,-0.016,-0.0188,-0.0204,-0.0238,-0.0268,-0.0294,-0.0322,-0.0348,-0.0353,-0.0357,-0.0391,-0.0378,-0.0391,-0.0406,-0.0396,-0.0411,-0.0383,-0.0364,-0.0313,-0.0344,-0.0308,-0.0302,-0.036,-0.036,-0.0359,-0.0358,0,0,-0.0151,-0.0204,-0.0215,-0.0244,-0.0297,-0.0325,-0.0385,-0.0436,-0.047,-0.046,-0.0487,-0.0511,-0.0479,-0.0487,-0.0475,-0.0437,-0.0399,-0.0388,-0.0385,-0.0341,-0.0299,-0.0335,-0.0331,-0.0362,-0.0361,-0.036,-0.028,0,-0.0164,-0.0206,-0.0246,-0.0317,-0.0349,-0.0402,-0.046,-0.0506,-0.0527,-0.0551,-0.0536,-0.0536,-0.0517,-0.0494,-0.0469,-0.0412,-0.0383,-0.0423,-0.0289,-0.0285,-0.03,-0.0326,-0.0358,-0.0276,-0.0274,-0.0273,-0.0272,0,-0.0182,-0.0208,-0.0266,-0.0362,-0.0386,-0.0439,-0.0544,-0.0583,-0.0629,-0.0626,-0.0622,-0.0591,-0.0556,-0.0512,-0.0423,-0.0438,-0.0379,-0.0329,-0.0324,-0.0333,-0.031,-0.0237,-0.026,-0.0261,-0.0262,-0.0263,-0.0264,0,-0.0169,-0.0245,-0.0295,-0.0324,-0.0416,-0.0476,-0.0533,-0.0607,-0.0634,-0.0641,-0.0625,-0.0602,-0.054,-0.047,-0.0392,-0.0375,-0.029,-0.025,-0.024,-0.0241,-0.0207,-0.0209,-0.0194,-0.0194,-0.0194,-0.0194,-0.0195,0,-0.0184,-0.0232,-0.0293,-0.032,-0.0411,-0.0468,-0.0552,-0.0607,-0.0636,-0.0648,-0.0632,-0.0601,-0.0513,-0.0466,-0.0399,-0.0317,-0.0292,-0.0249,-0.0225,-0.0233,-0.0238,-0.0203,-0.0205,-0.0191,-0.0192,-0.0193,-0.0193,0,-0.0181,-0.0212,-0.0276,-0.0365,-0.0406,-0.0466,-0.0562,-0.0596,-0.0612,-0.0616,-0.059,-0.0563,-0.0474,-0.0443,-0.0328,-0.0308,-0.0236,-0.0226,-0.0263,-0.0242,-0.0204,-0.021,-0.0156,-0.0157,-0.0157,-0.0158,-0.0158,0,-0.0189,-0.0207,-0.0299,-0.0345,-0.0397,-0.0477,-0.0528,-0.058,-0.0581,-0.0582,-0.0556,-0.05,-0.0476,-0.0362,-0.0326,-0.0245,-0.0241,-0.0217,-0.0189,-0.0219,-0.02,-0.0206,-0.0211,-0.0159,-0.0159,-0.0159,-0.0159,0,-0.0203,-0.0225,-0.0273,-0.0336,-0.0405,-0.0477,-0.0529,-0.0523,-0.0542,-0.0554,-0.0495,-0.046,-0.04,-0.0331,-0.0314,-0.025,-0.0232,-0.0221,-0.0218,-0.0191,-0.0222,-0.0204,-0.0208,-0.0161,-0.0161,-0.0161,-0.0161,0,-0.0221,-0.0253,-0.0284,-0.0345,-0.0409,-0.0446,-0.0495,-0.0484,-0.049,-0.047,-0.0447,-0.0411,-0.0388,-0.0335,-0.0305,-0.0274,-0.0225,-0.0198,-0.0195,-0.0192,-0.0247,-0.0293,-0.0236,0,0,0,0,0,-0.0235,-0.0247,-0.0294,-0.0363,-0.0402,-0.0423,-0.0473,-0.0494,-0.0493,-0.0441,-0.0443,-0.0387,-0.0337,-0.0317,-0.0278,-0.0301,-0.0231,-0.0257,-0.0201,-0.0172,-0.017,-0.0233,0,0,0,0,0,0,-0.0251,-0.0281,-0.028,-0.0316,-0.0343,-0.0393,-0.0408,-0.0428,-0.0388,-0.0389,-0.0353,-0.0361,-0.0305,-0.0338,-0.0263,-0.0259,-0.0217,-0.024,-0.0239,-0.0173,-0.0171,-0.0169,-0.0234,0,0,0,0,0]}]]